DECAYED

STARLINK-2325, 47979 (Decayed)

Orbit data source: Space-Track

STARLINK-2325, 47979 was a payload satellite owned by SpaceX/Seattle (US) in LEO that was launched on Wed, 24 Mar 2021 UTC via an FALCON 9 launch vehicle from the Air Force Eastern Test Range (AFETR). Payload-class satellites include a variety of spacecraft equipped with specific instruments for various scientific and technological missions. These include communications satellites like Starlink; space stations such as the ISS; scientific satellites like the Hubble; Earth observation satellites from companies like Planet Labs, Umbra, and HawkEye 360; GPS; miniature CubeSats for education and research; and military/defense satellites.

Not visible in the next 10 days
Identifier
47979, 2021-024C
Orbit
Decayed
Country
Flag of USUS
Related business
Manufacturer
SpaceX/Seattle
Mission
Decayed Commercial Communications
Bus & Motor
STARLINK, Unknown motor
Mass
260 kg wet, ~248 kg dry
Launch date (UTC)
2021-03-24 (5 years ago)
Launch vehicle
FALCON 9
Launch site
Air Force Eastern Test Range (AFETR)
Object type
Payload
Rocket body
Debris
Shape & HBR
Box + 1 Pan, 10.1 m
Radar Cross Section
13.562 m², Large (>1 m²)

Expand to show TLE details & history
Last TLE update: 1 year ago

TLE from 1 year ago
0 STARLINK-2325
1 47979U 21024C   25052.74170637  .21676245  12623-4  36665-3 0  9994
2 47979  53.0417 141.3512 0002508   9.0203 133.4946 16.47951837218095
Epoch: 2025-02-21T17:48Z
TLE epoch observation values (Epoch: 2025-02-21T17:48:03.430Z)
Latitude
29.17495°
Longitude
-122.24827°
Altitude
147.422 km
Speed
7.821 km/s
True Right ascension
19h 46m 39s
True Declination
29° 00' 54"
Sunlit
Object was in daylight at epoch
Visualization orbit readout
Latitude
Unknown
Longitude
Unknown
Altitude
Unknown
Speed
Unknown
Apparent Right ascension
Unknown
Apparent Declination
Unknown
Sunlit
N/A
Visualization observer readout
Local Sidereal Time
20:41:32
Azimuth
Unknown
Elevation
Unknown
Doppler factor
Unknown
Orbital elements
Apogee altitude
146.66 km
Perigee altitude
143.388 km
Semi-major axis
6,523.161 km
Eccentricity
0.00025
Inclination
53.0417°
RAAN
141.3512°
Arg. of periapsis
9.0203°
True anomaly
133.51544°
Mean anomaly
133.4946°
Eccentric anomaly
133.50502°
Mean motion
4.11961 °/min
Orbital period
87.39 mins
BSTAR
0.00036665
Loading maneuver chart data...
Computing Atmospheric mass density...

Documentation

Showing up to 5 results
|